Location: Biltmore Gardens
(41.6070°N, 83.4666°W)
Time: 19:33:14
(UTC+00:00)

Explorer 7 - All Passes

Search period start: 19 April 2021 00:00
Search period end: 29 April 2021 00:00
Orbit: 484 x 677 km, 50.3° (Epoch: 19 April)

Date Brightness Start Highest point End Pass type
(mag) Time Alt. Az. Time Alt. Az. Time Alt. Az.
19 Apr - 01:12:20 10° SSW 01:16:03 39° SE 01:19:59 10° ENE visible
19 Apr - 02:52:34 10° W 02:56:31 45° NNW 03:00:45 10° NE visible
19 Apr - 04:34:10 10° WNW 04:37:50 26° N 04:41:41 10° NE visible
19 Apr - 06:15:04 10° NW 06:19:14 37° NNE 06:23:39 10° E night (unlit)
19 Apr - 07:55:28 10° WNW 08:00:04 69° SW 08:04:53 10° SE visible
19 Apr - 09:37:44 10° W 09:40:04 14° SW 09:42:25 10° SSW visible
20 Apr - 01:16:29 10° SW 01:20:24 64° SE 01:24:36 10° ENE visible
20 Apr - 02:57:20 10° W 03:01:09 35° NNW 03:05:12 10° NE visible
20 Apr - 04:38:53 10° NW 04:42:33 26° N 04:46:25 10° ENE visible
20 Apr - 06:19:30 10° NW 06:23:51 47° NNE 06:28:26 10° E night (unlit)
20 Apr - 08:00:02 10° WNW 08:04:28 45° SW 08:09:04 10° SSE night (unlit)
20 Apr - 23:42:25 10° S 23:44:52 16° SE 23:47:24 10° E daylight
21 Apr - 01:20:52 10° WSW 01:24:50 83° NNW 01:29:05 10° ENE visible
21 Apr - 03:02:09 10° WNW 03:05:48 29° NNW 03:09:41 10° NE visible
21 Apr - 04:43:29 10° NW 04:47:15 28° N 04:51:13 10° ENE visible
21 Apr - 06:23:56 10° NW 06:28:24 63° NNE 06:33:07 10° ESE night (unlit)
21 Apr - 08:04:45 10° WNW 08:08:46 29° SW 08:12:57 10° SSE night (unlit)
21 Apr - 23:45:49 10° SSW 23:49:05 26° SE 23:52:31 10° ENE daylight
22 Apr - 01:25:25 10° WSW 01:29:20 56° NNW 01:33:31 10° NE visible
22 Apr - 03:06:57 10° WNW 03:10:30 26° N 03:14:15 10° NE visible
22 Apr - 04:48:01 10° NW 04:51:55 32° NNE 04:56:03 10° ENE visible
22 Apr - 06:28:22 10° WNW 06:32:53 89° NNE 06:37:38 10° ESE night (unlit)
22 Apr - 08:09:47 10° W 08:13:02 19° SW 08:16:23 10° S night (unlit)
22 Apr - 23:49:42 10° SSW 23:53:22 43° SE 23:57:15 10° ENE daylight
23 Apr - 01:30:07 10° W 01:33:54 41° NNW 01:37:56 10° NE visible
23 Apr - 03:11:43 10° WNW 03:15:13 25° N 03:18:54 10° NE visible
23 Apr - 04:52:28 10° NW 04:56:34 38° NNE 05:00:53 10° E visible
23 Apr - 06:32:51 10° WNW 06:37:18 62° SW 06:41:59 10° SE night (unlit)
23 Apr - 08:15:42 10° WSW 08:17:14 11° SW 08:18:47 10° SSW night (unlit)
23 Apr - 22:17:27 10° SE 22:18:00 10° SE 22:18:32 10° ESE daylight
23 Apr - 23:53:54 10° SW 23:57:44 71° SE 00:01:49 10° ENE daylight
24 Apr - 01:34:53 10° W 01:38:31 32° NNW 01:42:22 10° NE visible
24 Apr - 03:16:23 10° NW 03:19:55 25° N 03:23:38 10° ENE visible
24 Apr - 04:56:54 10° NW 05:01:08 49° NNE 05:05:38 10° E visible
24 Apr - 06:37:27 10° WNW 06:41:40 40° SW 06:46:05 10° SSE night (unlit)
24 Apr - 22:19:33 10° S 22:22:10 18° SE 22:24:51 10° E daylight
24 Apr - 23:58:19 10° WSW 00:02:11 74° NNW 00:06:17 10° NE daylight
25 Apr - 01:39:42 10° WNW 01:43:11 27° N 01:46:51 10° NE visible
25 Apr - 03:20:57 10° NW 03:24:36 28° N 03:28:27 10° ENE visible
25 Apr - 05:01:18 10° NW 05:05:40 68° NNE 05:10:16 10° ESE visible
25 Apr - 06:42:14 10° W 06:45:58 26° SW 06:49:51 10° S night (unlit)
25 Apr - 22:23:04 10° SSW 22:26:23 29° SE 22:29:51 10° ENE daylight
26 Apr - 00:02:54 10° WSW 00:06:42 50° NNW 00:10:42 10° NE daylight
26 Apr - 01:44:29 10° WNW 01:47:53 25° N 01:51:25 10° NE visible
26 Apr - 03:25:27 10° NW 03:29:15 32° NNE 03:33:16 10° E visible
26 Apr - 05:05:45 10° WNW 05:10:07 83° SSW 05:14:46 10° SE visible
26 Apr - 06:47:24 10° W 06:50:12 16° SW 06:53:06 10° S night (unlit)
26 Apr - 22:27:02 10° SW 22:30:41 48° SE 22:34:31 10° ENE daylight
27 Apr - 00:07:37 10° W 00:11:16 37° NNW 00:15:06 10° NE daylight
27 Apr - 01:49:13 10° NW 01:52:34 24° N 01:56:05 10° ENE visible
27 Apr - 03:29:52 10° NW 03:33:51 39° NNE 03:38:04 10° E visible
27 Apr - 05:10:15 10° WNW 05:14:31 55° SW 05:19:02 10° SE visible
27 Apr - 20:53:56 10° SSE 20:55:15 12° SE 20:56:35 10° ESE daylight
27 Apr - 22:31:17 10° SW 22:35:04 80° SE 22:39:03 10° ENE daylight
28 Apr - 00:12:25 10° WNW 00:15:53 30° NNW 00:19:32 10° NE daylight
28 Apr - 01:53:51 10° NW 01:57:15 25° N 02:00:50 10° ENE visible
28 Apr - 03:34:16 10° NW 03:38:24 52° NNE 03:42:48 10° ESE visible
28 Apr - 05:14:52 10° WNW 05:18:51 35° SW 05:23:02 10° SSE visible
28 Apr - 20:56:40 10° S 20:59:26 20° SE 21:02:16 10° E daylight
28 Apr - 22:35:45 10° WSW 22:39:31 66° NNW 22:43:29 10° NE daylight
